Location: Newark
(56.0692°N, 115.8617°E)
Time: 19:52:32
(UTC+00:00)

STARLINK-2731 - Pass Details

Date: 30 July 2021
Orbit: 546 x 548 km, 53.1° (Epoch: 24 September)

Event Time Altitude Azimuth Distance (km) Brightness Sun altitude
Rises 13:13:41 0° 277° (W) 2,718 8.1 -5.6°
Reaches altitude 10° 13:17:33 10° 240° (WSW) 1,819 6.5 -6.0°
Maximum altitude 13:18:38 11° 225° (SW) 1,760 6.2 -6.1°
Drops below altitude 10° 13:19:43 10° 210° (SSW) 1,816 6.1 -6.2°
Enters shadow 13:23:01 - 177° (S) 2,530 6.5 -6.5°
